Regional Weather Roundup
Issued by NWS

Home | Current Version | Previous Version | Graphics & Text | Print | Product List | Glossary On
Versions: 1 2 3 4 5 6 7 8 9 10 11 12 13 14 15 16 17 18 19 20 21 22 23 24 25 26 27 28 29 30 31 32 33 34 35 36 37 38 39 40 41 42 43 44 45 46 47 48 49 50
840
ASUS45 KTFX 232010
RWRMT
MONTANA REGIONAL WEATHER ROUNDUP
NATIONAL WEATHER SERVICE GREAT FALLS MT
200 PM MDT MON OCT 23 2017

NOTE: "FAIR" INDICATES FEW OR NO CLOUDS BELOW 12000 FEET WITH NO
SIGNIFICANT WEATHER AND/OR OBSTRUCTIONS TO VISIBILITY.

MTZ001>007-043-232100-
WEST OF THE DIVIDE

CITY           SKY/WX    TMP DP  RH WIND       PRES   REMARKS
KALISPELL      MOSUNNY   53  32  44 SE9       30.62S
MISSOULA       MOSUNNY   54  32  43 W6        30.66F
BUTTE          SUNNY     47  22  37 NW12      30.61S
MULLAN PASS    CLOUDY    39  28  64 VRB5      30.64S
ANACONDA         N/A     48  23  37 W13G18    30.62S
DEER LODGE       N/A     48  28  46 NW12G22   30.64R
EUREKA           N/A     55  28  35 MISG      30.61S
HAMILTON         N/A     52  28  40 CALM      30.65F
LIBBY            N/A     54  30  40 E3        30.63F
PLAINS           N/A     55  31  40 CALM      30.62R
$$

MTZ008-052>055-232100-
SOUTHWEST MONTANA

CITY           SKY/WX    TMP DP  RH WIND       PRES   REMARKS
BOZEMAN        SUNNY     52  22  30 W10       30.58F
DILLON         CLOUDY    51  22  31 SW7       30.60R HAZE
W YELLOWSTONE  SUNNY     46  16  29 VRB7G14   30.58S
ENNIS          SUNNY     50  18  27 NW12      30.64R
THREE FORKS      N/A     54  20  26 W3        30.51S
TWIN BRIDGES     N/A     53  18  25 W1        30.51S
$$

MTZ009-010-012-014-046-048-049-054-232100-
EAST SLOPES AND CENTRAL MONTANA

CITY           SKY/WX    TMP DP  RH WIND       PRES   REMARKS
CUT BANK       SUNNY     54  18  24 NW20G31   30.50R
GREAT FALLS    SUNNY     56  18  22 W15G28    30.52R
MALMSTROM AFB  SUNNY     56  18  22 NW15G22   30.52S
HELENA         SUNNY     54  26  34 W23G32    30.57S
BOWMANS CRNR     N/A     52  20  28 W17G25    30.53R
CHOTEAU          N/A     55  19  24 W17G24    30.54S
FAIRFIELD        N/A     55  18  23 W20       30.52R
POWER            N/A     55  15  20 NW21      30.51R
RAYNESFORD       N/A     51  17  26 W23       30.52R
ULM              N/A     56  18  22 NW16G28   30.53S
$$

MTZ011-013-016-021-045-047-050-051-232100-
NORTH CENTRAL MONTANA

CITY           SKY/WX    TMP DP  RH WIND       PRES   REMARKS
HAVRE          SUNNY     58  22  24 NW21G28   30.45R
LEWISTOWN      MOSUNNY   52  19  27 NW15G25   30.49R
N BAR RANCH      N/A     50  18  27 NW20G37   30.49S
CHINOOK          N/A     57  21  24 NW17G23   30.43S
DENTON           N/A     53  19  26 NW22G32   30.46R
GEYSER           N/A     53  20  27 W23G35    30.49S
GRASS RANGE      N/A     50  20  30 NW21G33   30.46R
JUDITH GAP       N/A     50  19  28 N26G38    30.49R
STANFORD         N/A     51  19  29 NW21G37   30.50S
WINIFRED         N/A     53  21  29 W17G25    30.47S
$$

MTZ017>020-022>027-061-062-232100-
NORTHEAST MONTANA

CITY           SKY/WX    TMP DP  RH WIND       PRES   REMARKS
GLASGOW        SUNNY     58  25  28 NW30G37   30.35R
JORDAN           N/A     58  22  24 NW24G33   30.39R
SIDNEY         SUNNY     57  27  31 NW25G41   30.26R
WOLF POINT     MOSUNNY   60  25  26 NW26G38   30.32R
MALTA          SUNNY     57  25  28 NW18G26   30.41R
PLENTYWOOD       N/A     54  27  35 NW30G43   30.23R
POPLAR           N/A     57  25  28 NW29G38   30.29R
SCOBEY           N/A     53  24  32 W29       30.27R
$$

MTZ028>42-056>058-232100-
SOUTHCENTRAL AND SOUTHEAST MONTANA

CITY           SKY/WX    TMP DP  RH WIND       PRES   REMARKS
BAKER          SUNNY     56  24  29 NW31G44   30.32R
BILLINGS       MOSUNNY   58  21  24 NW20G28   30.48S
LIVINGSTON     SUNNY     54  20  26 W25G31    30.54S
MILES CITY     SUNNY     59  26  28 NW28G35   30.37R
BIG TIMBER     SUNNY     52  19  28 W26G35    30.54S
EKALAKA          N/A     54  19  25 W25       30.28S
FORSYTH          N/A     57  21  24 W22G31    30.40R
HARLOWTON        N/A     54  20  26 W23G32    30.49S
LAUREL           N/A     59  19  21 NW23G31   30.49S
ROUNDUP          N/A     56  17  21 W21       30.35R
$$

REGIONAL REPORTS...DAKOTAS

CITY           SKY/WX    TMP DP  RH WIND       PRES   REMARKS
WILLISTON      LGT RAIN  56  26  31 NW35G44   30.23R
MINOT          CLOUDY    53  34  48 NW31G41   30.10R
DICKINSON      PTSUNNY   54  25  32 NW29G44   30.20R
BEACH            N/A     55  23  28 NW31G45   30.30R
CROSBY           N/A     52  30  43 NW26G39   30.19R
TIOGA            N/A     52  28  40 NW36G43   30.19R
WATFORD CITY     N/A     54  25  32 NW32G41   30.20S
BISMARCK       PTSUNNY   57  31  37 NW32G41   30.11F
GRAND FORKS    MOSUNNY   56  31  38 NW23G32   29.93R
FARGO          SUNNY     56  30  37 NW22G37   29.93S
BUFFALO SD       N/A     58  21  24 NW36G53   30.22R
RAPID CITY     PTSUNNY   58  21  24 N35G46    30.31R
$$

REGIONAL REPORTS...WYOMING/IDAHO/WASHINGTON

CITY           SKY/WX    TMP DP  RH WIND       PRES   REMARKS
GILLETTE       PTSUNNY   53  20  27 NW26G32   30.42R
SHERIDAN       SUNNY     56  21  25 NW25G33   30.46R
BUFFALO WY     SUNNY     51  17  26 N22G38    30.45S
CODY           SUNNY     53  17  24 NW14G26   30.51S
YELLOWSTONE LA   N/A     39  32  76 W10       30.60S
IDAHO FALLS    MOSUNNY   51  39  63 SW3       30.63F
SALMON         CLOUDY    54  28  36 CALM      30.64F
BOISE          MOSUNNY   56  39  53 W9        30.66F
SPOKANE        MOSUNNY   52  39  61 SW7       30.67F
$$

REGIONAL REPORTS...ALBERTA

CITY           SKY/WX    TMP DP  RH WIND       PRES   REMARKS
EDMONTON       SUNNY     52  27  37 NW14G25   30.33S
CALGARY        MOSUNNY   54  14  20 W14G21    30.42S
LETHBRIDGE     MOSUNNY   57  18  21 W16G24    30.45F
MEDICINE HAT   MOSUNNY   55  27  33 NW8       30.44S
$$

REGIONAL REPORTS...SASKATCHEWAN

CITY           SKY/WX    TMP DP  RH WIND       PRES   REMARKS
SWIFT CURRENT  MOSUNNY   50  28  43 NW22G33   30.33R
REGINA         MOSUNNY   52  30  43 NW26G33   30.22R
SASKATOON      MOSUNNY   52  36  54 W20       30.25R
$$




USA.gov is the U.S. government's official web portal to all federal, state and local government web resources and services.